STARLINK-36755, 67726

Orbit data source: Space-Track

STARLINK-36755, 67726 is a payload satellite owned by SpaceX/Seattle (US) in SSO that was launched on Wed, 11 Feb 2026 UTC via an FALCON 9 launch vehicle from the Air Force Western Test Range (AFWTR). Payload-class satellites include a variety of spacecraft equipped with specific instruments for various scientific and technological missions. These include communications satellites like Starlink; space stations such as the ISS; scientific satellites like the Hubble; Earth observation satellites from companies like Planet Labs, Umbra, and HawkEye 360; GPS; miniature CubeSats for education and research; and military/defense satellites.

Loading next visibility...
Identifier
67726, 2026-026F
Orbit
SSO
Country
Flag of USUS
Related business
Manufacturer
SpaceX/Seattle
Mission
Operational Commercial Communications
Bus & Motor
STARLINK V2MO, Unknown motor
Mass
575 kg wet, ~530 kg dry
Launch date (UTC)
2026-02-11 (3 months ago)
Launch vehicle
FALCON 9
Launch site
Air Force Western Test Range (AFWTR)
Object type
Payload
Rocket body
Debris
Shape & HBR
Box + 2 Pan, 17.7 m
Radar Cross Section
36.964 m²

Expand to show TLE details & history
Last TLE update: 9 hours ago

TLE from 9 hours ago
0 STARLINK-36755
1 67726U 26026F   26130.15597992  .00010356  00000-0  32261-3 0  9995
2 67726  97.2834 183.8571 0000396 105.7969 254.3318 15.33449619 13545
Epoch: 2026-05-10T03:44Z
TLE epoch observation values (Epoch: 2026-05-10T03:44:36.665Z)
Latitude
0.00006°
Longitude
-100.25879°
Altitude
468.715 km
Speed
7.632 km/s
True Right ascension
12h 15m 25s
True Declination
0° 00' 00"
Sunlit
Object was in full shadow at epoch
Visualization orbit readout
Latitude
Unknown
Longitude
Unknown
Altitude
Unknown
Speed
Unknown
Apparent Right ascension
Unknown
Apparent Declination
Unknown
Sunlit
N/A
Visualization observer readout
Local Sidereal Time
20:35:56
Azimuth
Unknown
Elevation
Unknown
Doppler factor
Unknown
Orbital elements
Apogee altitude
462.743 km
Perigee altitude
462.201 km
Semi-major axis
6,840.609 km
Eccentricity
0.00004
Inclination
97.2834°
RAAN
183.8571°
Arg. of periapsis
105.7969°
True anomaly
254.32743°
Mean anomaly
254.3318°
Eccentric anomaly
254.32962°
Mean motion
3.8362 °/min
Orbital period
93.84 mins
BSTAR
0.00032261
Loading maneuver chart data...
Computing Atmospheric mass density...
Loading historical data...
Loading historical data...
Loading historical data...
Loading historical data...
Loading historical data...
Loading historical data...
Loading historical data...

Documentation

Showing up to 5 results
|